STARLINK-3777, 52294

Orbit data source: Space-Track

STARLINK-3777, 52294 is a payload satellite owned by SpaceX/Seattle (US) in LEO that was launched on Thu, 21 Apr 2022 UTC via an FALCON 9 launch vehicle from the Air Force Eastern Test Range (AFETR). Payload-class satellites include a variety of spacecraft equipped with specific instruments for various scientific and technological missions. These include communications satellites like Starlink; space stations such as the ISS; scientific satellites like the Hubble; Earth observation satellites from companies like Planet Labs, Umbra, and HawkEye 360; GPS; miniature CubeSats for education and research; and military/defense satellites.

Loading next visibility...
Identifier
52294, 2022-041AK
Orbit
LEO
Country
Flag of USUS
Related business
Manufacturer
SpaceX/Seattle
Mission
Operational Commercial Communications
Bus & Motor
STARLINK, Unknown motor
Mass
297 kg wet, ~275 kg dry
Launch date (UTC)
2022-04-21 (4 years ago)
Launch vehicle
FALCON 9
Launch site
Air Force Eastern Test Range (AFETR)
Object type
Payload
Rocket body
Debris
Shape & HBR
Box + 1 Pan, 10.1 m
Radar Cross Section
11.087 m², Large (>1 m²)

Expand to show TLE details & history
Last TLE update: 12 hours ago

TLE from 12 hours ago
0 STARLINK-3777
1 52294U 22041AK  26254.48388212  .00000828  00000-0  36520-4 0  9994
2 52294  53.1614 333.9441 0001317  84.1079 276.0073 15.33544761242701
Epoch: 2026-09-11T11:36Z
TLE epoch observation values (Epoch: 2026-09-11T11:36:47.415Z)
Latitude
-0.00003°
Longitude
169.23993°
Altitude
466.053 km
Speed
7.635 km/s
True Right ascension
22h 15m 46s
True Declination
0° 00' 00"
Sunlit
Object was in full shadow at epoch
Visualization orbit readout
Latitude
Unknown
Longitude
Unknown
Altitude
Unknown
Speed
Unknown
Apparent Right ascension
Unknown
Apparent Declination
Unknown
Sunlit
N/A
Visualization observer readout
Local Sidereal Time
16:00:22
Azimuth
Unknown
Elevation
Unknown
Doppler factor
Unknown
Orbital elements
Apogee altitude
466.404 km
Perigee altitude
464.602 km
Semi-major axis
6,843.64 km
Eccentricity
0.00013
Inclination
53.1614°
RAAN
333.9441°
Arg. of periapsis
84.1079°
True anomaly
275.99229°
Mean anomaly
276.0073°
Eccentric anomaly
275.9998°
Mean motion
3.83365 °/min
Orbital period
93.91 mins
BSTAR
0.00003652
Loading maneuver chart data...
Computing Atmospheric mass density...
Loading historical data...
Loading historical data...
Loading historical data...
Loading historical data...
Loading historical data...
Loading historical data...
Loading historical data...

Documentation

Showing up to 5 results
|